Location: Newark
(35.0317°N, 117.3481°W)
Time: 02:18:01
(UTC+00:00)

N. Korean satellite - Visible Passes

Search period start: 16 October 2019 00:00
Search period end: 26 October 2019 00:00
Orbit: 455 x 508 km, 97.2° (Epoch: 14 October)

Date Brightness Start Highest point End Pass type
(mag) Time Alt. Az. Time Alt. Az. Time Alt. Az.
16 Oct 10.0 12:52:10 10° NE 12:54:34 17° E 12:56:59 10° SE visible
18 Oct 10.5 02:07:27 10° WSW 02:08:18 11° W 02:09:10 10° WNW visible
19 Oct 9.3 01:40:03 10° SSW 01:42:52 24° W 01:45:42 10° NW visible
19 Oct 9.0 13:08:57 10° NE 13:12:09 29° E 13:15:21 10° SSE visible
20 Oct 10.2 12:44:49 10° ENE 12:46:44 14° E 12:48:39 10° SE visible
22 Oct 10.1 01:58:36 10° SW 02:00:25 14° W 02:02:15 10° WNW visible
22 Oct 7.6 13:26:05 10° NNE 13:29:40 52° E 13:33:15 10° S visible
23 Oct 8.8 01:31:56 10° SSW 01:34:59 30° W 01:38:04 10° NW visible
23 Oct 9.4 13:01:19 10° NE 13:04:18 23° E 13:07:18 10° SSE visible
24 Oct 10.5 12:37:50 10° ENE 12:38:51 11° E 12:39:53 10° ESE visible
